Location: Be Tobo
(6.6442°N, 10.6239°W)
Time: 04:08:42
(UTC+00:00)

Cosmos 1300 Rocket - Pass Details

Date: 18 September 2020
Orbit: 602 x 626 km, 82.5° (Epoch: 23 October)

Event Time Altitude Azimuth Distance (km) Brightness Sun altitude
Rises 19:42:15 0° 178° (S) 2,858 6.9 -16.2°
Reaches altitude 10° 19:44:29 10° 175° (S) 1,958 6.0 -16.7°
Maximum altitude 19:48:46 64° 94° (E) 679 3.4 -17.8°
Drops below altitude 10° 19:53:05 10° 12° (NNE) 1,969 6.0 -18.9°
Sets 19:55:19 0° 9° (N) 2,877 6.9 -19.4°
